Location: Madingley
(52.2167°N, 0.0500°E)
Time: 21:05:00
(UTC+00:00)

Cosmos 2151 - Pass Details

Date: 15 May 2026
Orbit: 556 x 575 km, 82.5° (Epoch: 8 June)

Event Time Altitude Azimuth Distance (km) Brightness Sun altitude
Rises 20:48:35 0° 350° (N) 2,777 7.5 -7.9°
Reaches altitude 10° 20:50:48 10° 352° (N) 1,872 6.5 -8.2°
Maximum altitude 20:54:55 77° 78° (ENE) 583 2.9 -8.6°
Drops below altitude 10° 20:58:59 10° 166° (SSE) 1,846 5.0 -9.0°
Enters shadow 20:59:10 - 166° (SSE) 1,920 5.0 -9.0°
